Location: Tucson
(32.2217°N, 110.9265°W)
Time: 03:08:25
(UTC-07:00)

Tiros 1 - Pass Details

Date: 02 November 2021
Orbit: 630 x 663 km, 48.4° (Epoch: 07 December)

Event Time Altitude Azimuth Distance (km) Brightness Sun altitude
Rises 05:28:27 0° 215° (SW) 2,972 - -16.0°
Exits shadow 05:28:44 - 214° (SW) 2,863 10.2 -15.9°
Reaches altitude 10° 05:30:51 10° 209° (SSW) 2,066 9.5 -15.5°
Maximum altitude 05:35:27 49° 135° (SE) 850 8.1 -14.5°
Drops below altitude 10° 05:40:04 10° 61° (ENE) 2,076 10.5 -13.5°
Sets 05:42:29 0° 56° (NE) 2,989 11.3 -13.0°
